Hourly Data Report for October 10, 2013

All times are specified in Local Standard Time (LST). Add 1 hour to adjust for Daylight Saving Time where and when it is observed.

PETAWAWA AWOS 2
ONTARIO

45°57'00.000" N
77°19'00.000" W
130.10 m
6106396
71625
YWA

Related Data

No related data is available for this station

Download Data

Hourly Data (October 2013)
Hourly Data Report for October 10, 2013
Temp Definition
°C
Dew Point Temp Definition
°C
Rel Hum Definition
%
Wind Dir Definition
10's deg

Wind Spd Definition
km/h
Visibility Definition
km
Stn Press Definition
kPa
Hmdx Definition


Wind Chill Definition


Weather Definition


TIME
00:00 4.9 4.9 100 17 4 15.0 100.96      
01:00 4.2 4.2 100   0 15.0 100.97      
02:00 3.8 3.3 97   0 15.0 100.96      
03:00 2.7 2.6 99   0 15.0 100.97      
04:00 1.5 1.5 100 24 4 1.9 101.00      
05:00 2.5 2.4 99   0 0.3 101.03      
06:00 4.5 4.5 100   0 0.2 101.05      
07:00 5.6 5.6 100 28 4 0.2 101.06      
08:00 6.8 6.8 100 23 4 0.2 101.06      
09:00 7.9 7.9 100   0 0.2 101.05      
10:00 9.6 9.6 100   0 15.0 101.03      
11:00 12.2 8.9 80 7 6 15.0 100.98      
12:00 15.3 9.9 70 8 4 15.0 100.91      
13:00 16.8 6.5 51 7 4 15.0 100.85      
14:00 18.4 8.9 54 9 6 15.0 100.80      
15:00 19.1 8.2 49 9 6 15.0 100.76      
16:00 19.4 7.3 45 12 6 15.0 100.72      
17:00 18.2 7.4 49 11 6 15.0 100.71      
18:00 13.2 9.9 80   0 15.0 100.70      
19:00 10.6 8.9 89   0 15.0 100.70      
20:00 11.0 8.7 86   0 15.0 100.69      
21:00 6.8 6.4 97   0 15.0 100.71      
22:00 7.8 7.1 95 25 4 15.0 100.70      
23:00 5.0 4.6 97   0 15.0 100.66      

Notes on Data Quality.

Legend

  • E = Estimated
  • M = Missing
  • NA = Not Available
  • ‡ = Partner data that is not subject to review by the National Climate Archives
Date modified: